Location: Asheville, NC
(35.6000°N, 82.5500°W)
Time: 03:23:10
(UTC-04:00)

MOZHAYETS 4 - Visible Passes

Search period start: 21 April 2018 00:00
Search period end: 01 May 2018 00:00
Orbit: 663 x 680 km, 98.0° (Epoch: 20 April)

Date Brightness Start Highest point End Pass type
(mag) Time Alt. Az. Time Alt. Az. Time Alt. Az.
21 Apr 10.7 02:37:10 11° NE 02:37:10 11° NE 02:37:40 10° NE visible
21 Apr 9.5 04:15:24 23° NNW 04:15:24 23° NNW 04:17:11 10° NNW visible
22 Apr 10.1 03:10:37 21° NE 03:10:37 21° NE 03:12:44 10° NNE visible
22 Apr 9.8 04:48:51 14° NW 04:48:51 14° NW 04:49:47 10° NW visible
23 Apr 9.4 03:44:05 30° N 03:44:05 30° N 03:46:30 10° N visible
24 Apr 10.6 02:39:19 12° NE 02:39:19 12° NE 02:40:30 10° NE visible
24 Apr 9.2 04:17:33 26° NNW 04:17:33 26° NNW 04:19:42 10° NNW visible
25 Apr 9.9 03:12:48 24° NE 03:12:48 24° NE 03:15:20 10° NNE visible
25 Apr 9.7 04:51:01 16° NW 04:51:01 16° NW 04:52:13 10° NW visible
26 Apr 9.1 03:46:16 36° N 03:46:16 36° N 03:49:03 10° N visible
27 Apr 10.5 02:41:29 13° ENE 02:41:29 13° ENE 02:43:16 10° NE visible
27 Apr 9.0 04:19:43 30° NW 04:19:43 30° NW 04:22:13 10° NNW visible
28 Apr 9.6 03:14:58 27° NE 03:14:58 27° NE 03:17:56 10° N visible
28 Apr 9.6 04:53:12 16° WNW 04:53:12 16° WNW 04:54:40 10° NW visible
29 Apr 8.7 03:48:26 43° N 03:48:26 43° N 03:51:36 10° N visible
30 Apr 10.4 02:43:41 14° ENE 02:43:41 14° ENE 02:46:01 10° NNE visible
30 Apr 8.8 04:21:55 33° NW 04:21:55 33° NW 04:24:42 10° NNW visible
